CDT,Max TemperatureF,Mean TemperatureF,Min TemperatureF,Max Dew PointF,MeanDew PointF,Min DewpointF,Max Humidity, Mean Humidity, Min Humidity, Max Sea Level PressureIn, Mean Sea Level PressureIn, Min Sea Level PressureIn, Max VisibilityMiles, Mean VisibilityMiles, Min VisibilityMiles, Max Wind SpeedMPH, Mean Wind SpeedMPH, Max Gust SpeedMPH,PrecipitationIn, CloudCover, Events, WindDirDegrees
2013-9-1,91,76,63,70,65,58,96,73,42,29.87,29.80,29.73,10,6,0,15,4,16,0.00,2,Fog,303
2013-9-2,77,67,57,60,56,51,89,66,40,30.02,29.96,29.87,10,10,10,13,7,17,0.00,2,,330
2013-9-3,78,64,49,56,52,48,96,70,37,30.12,30.06,30.02,10,10,5,8,2,,0.00,0,,259
2013-9-4,86,68,50,66,56,49,97,72,34,30.15,30.11,30.05,10,8,0,6,1,,0.00,1,Fog,234
2013-9-5,83,73,63,65,61,54,93,72,46,30.24,30.19,30.12,10,10,3,12,4,,0.00,2,,80
2013-9-6,89,72,56,63,57,51,84,62,37,30.21,30.12,29.99,10,10,7,10,4,,0.00,1,,163
2013-9-7,92,78,63,70,64,61,90,67,38,30.00,29.94,29.88,10,10,5,13,5,,0.00,1,Rain,172
2013-9-8,84,76,69,68,66,65,84,75,56,30.03,29.96,29.91,10,10,7,15,8,23,0.00,6,,73
2013-9-9,98,82,67,71,68,64,94,67,34,29.94,29.86,29.79,10,8,2,14,5,18,0.00,1,,174
2013-9-10,97,84,69,65,61,54,76,49,22,30.00,29.95,29.88,10,10,10,15,8,23,0.00,0,,188
2013-9-11,86,76,66,67,64,60,92,66,47,30.07,30.03,29.99,10,10,10,8,4,,0.00,2,Rain,269
2013-9-12,79,68,58,64,53,43,96,61,30,30.13,30.05,30.01,10,9,0,16,6,29,0.00,0,Fog,320
2013-9-13,72,59,47,47,39,31,83,52,22,30.24,30.18,30.13,10,10,10,10,7,17,0.00,0,,26
2013-9-14,74,57,40,49,43,36,95,61,29,30.19,30.11,30.00,10,10,7,10,4,,0.00,0,,170
2013-9-15,62,57,52,58,53,46,95,85,62,30.21,30.04,29.96,10,9,2,13,5,,0.97,6,Rain,68
2013-9-16,70,60,50,53,47,39,95,69,33,30.39,30.31,30.21,10,10,10,15,7,16,0.02,2,,47
2013-9-17,71,58,44,58,50,42,93,74,52,30.33,30.22,30.07,10,10,5,13,6,17,0.00,3,Rain,114
2013-9-18,80,70,60,69,62,54,94,78,64,30.07,29.97,29.86,10,9,2,16,6,21,0.34,5,Rain-Thunderstorm,152
2013-9-19,92,80,68,69,67,63,91,72,37,29.90,29.83,29.72,10,9,5,22,8,32,0.08,3,Rain-Thunderstorm,183
2013-9-20,70,64,58,66,57,50,92,74,51,29.89,29.85,29.79,10,10,10,16,9,21,0.02,4,Rain,267
2013-9-21,67,58,50,50,48,46,94,72,47,29.96,29.92,29.88,10,10,10,13,7,17,0.01,0,,315
2013-9-22,72,56,41,50,46,41,97,72,33,30.07,30.01,29.96,10,9,0,8,2,,0.00,0,Fog,73
2013-9-23,75,60,44,49,46,43,95,66,33,30.10,30.03,29.99,10,10,7,12,5,16,0.00,0,,92
2013-9-24,77,62,48,51,48,45,90,66,33,30.01,29.96,29.91,10,10,10,13,6,17,0.00,0,,82
2013-9-25,78,64,49,53,48,45,94,67,30,29.98,29.94,29.90,10,9,4,10,4,,0.00,0,,63
2013-9-26,82,66,49,55,51,48,94,66,37,30.05,30.01,29.97,10,8,2,12,4,9,0.00,0,,103
2013-9-27,84,68,51,52,49,44,91,55,25,30.13,30.06,30.00,10,10,7,15,5,21,0.00,0,,135
2013-9-28,83,70,56,66,57,49,93,73,43,30.01,29.95,29.87,10,9,3,24,10,30,0.10,4,Rain,190
2013-9-29,71,57,43,54,47,40,97,75,33,30.10,30.03,29.99,10,7,0,6,2,,0.10,1,Fog,274
2013-9-30,77,60,42,51,46,41,95,65,29,30.00,29.92,29.83,10,10,3,16,5,20,0.00,0,,165